• In Latvia
  • List of Countries
  • For 7 days
  • Water Temperature
  • Satellite Maps
  • Weather Map
  • Weather Widgets
  • user-avatar
    Login

    Hourly Weather Lecco

    Today, 18 July, Wednesday

    Time Temperature Precipitation Wind Pressure Humidity
    00:00 +20°C° 0 mm 2 mps 743 mmHg 62%
    01:00 +21°C° 0 mm 3 mps 743 mmHg 58%
    02:00 +21°C° 0 mm 3 mps 743 mmHg 60%
    03:00 +20°C° 0 mm 2 mps 743 mmHg 61%
    04:00 +20°C° 0 mm 2 mps 743 mmHg 63%
    05:00 +21°C° 0 mm 2 mps 743 mmHg 62%
    06:00 +23°C° 0 mm 2 mps 743 mmHg 62%
    07:00 +25°C° 0 mm 2 mps 743 mmHg 57%
    08:00 +27°C° 0 mm 2 mps 743 mmHg 51%
    09:00 +29°C° 0 mm 1 mps 742 mmHg 45%
    10:00 +31°C° 0 mm 1 mps 742 mmHg 39%
    11:00 +31°C° 0 mm 1 mps 742 mmHg 37%
    12:00 +32°C° 0 mm 1 mps 742 mmHg 35%
    13:00 +34°C° 0 mm 2 mps 742 mmHg 33%
    14:00 +34°C° 0 mm 2 mps 742 mmHg 34%
    15:00 +34°C° 0 mm 2 mps 742 mmHg 35%
    16:00 +34°C° 0 mm 2 mps 741 mmHg 35%
    17:00 +32°C° 0 mm 2 mps 741 mmHg 43%
    18:00 +30°C° 0 mm 2 mps 741 mmHg 50%
    19:00 +29°C° 0 mm 1 mps 741 mmHg 57%
    20:00 +27°C° 0 mm 1 mps 741 mmHg 59%
    21:00 +26°C° 0 mm 2 mps 742 mmHg 61%
    22:00 +24°C° 0 mm 2 mps 742 mmHg 63%
    23:00 +24°C° 0 mm 2 mps 742 mmHg 63%

    Tomorrow, 19 July, Thursday

    Time Temperature Precipitation Wind Pressure Humidity
    00:00 +23°C° 0 mm 2 mps 742 mmHg 63%
    01:00 +23°C° 0 mm 2 mps 743 mmHg 63%
    02:00 +22°C° 0.2 mm 1 mps 742 mmHg 65%
    03:00 +22°C° 0.2 mm 1 mps 742 mmHg 66%
    04:00 +21°C° 0.2 mm 1 mps 742 mmHg 68%
    05:00 +22°C° 0 mm 1 mps 742 mmHg 67%
    06:00 +23°C° 0 mm 1 mps 742 mmHg 66%
    07:00 +24°C° 0 mm 1 mps 742 mmHg 65%
    08:00 +26°C° 0 mm 1 mps 742 mmHg 58%
    09:00 +28°C° 0 mm 1 mps 742 mmHg 51%
    10:00 +30°C° 0 mm 1 mps 742 mmHg 44%
    11:00 +31°C° 0 mm 1 mps 742 mmHg 43%
    12:00 +32°C° 0 mm 2 mps 742 mmHg 42%
    13:00 +34°C° 0 mm 2 mps 742 mmHg 40%
    14:00 +32°C° 0.2 mm 2 mps 741 mmHg 43%
    15:00 +32°C° 0.2 mm 2 mps 741 mmHg 45%
    16:00 +32°C° 0.2 mm 2 mps 741 mmHg 47%
    17:00 +31°C° 0.4 mm 2 mps 741 mmHg 54%
    18:00 +30°C° 0.4 mm 1 mps 741 mmHg 60%
    19:00 +29°C° 0.4 mm 1 mps 741 mmHg 67%
    20:00 +27°C° 0.2 mm 1 mps 741 mmHg 70%
    21:00 +26°C° 0.2 mm 1 mps 742 mmHg 72%
    22:00 +24°C° 0.2 mm 1 mps 742 mmHg 75%
    23:00 +24°C° 0.1 mm 1 mps 742 mmHg 76%

    Day after tomorrow, 20 July, Friday

    Time Temperature Precipitation Wind Pressure Humidity
    00:00 +23°C° 0.1 mm 1 mps 742 mmHg 78%
    01:00 +23°C° 0.1 mm 1 mps 742 mmHg 79%
    02:00 +22°C° 0.5 mm 1 mps 742 mmHg 80%
    03:00 +22°C° 0.5 mm 1 mps 742 mmHg 81%
    04:00 +22°C° 0.5 mm 1 mps 742 mmHg 82%
    05:00 +23°C° 0.4 mm 1 mps 742 mmHg 81%
    06:00 +24°C° 0.4 mm 1 mps 742 mmHg 80%
    07:00 +23°C° 0.4 mm 0 mps 742 mmHg 79%
    08:00 +26°C° 0.4 mm 1 mps 742 mmHg 74%
    09:00 +27°C° 0.4 mm 1 mps 742 mmHg 69%
    10:00 +29°C° 0.4 mm 1 mps 742 mmHg 65%
    11:00 +30°C° 0.5 mm 1 mps 741 mmHg 63%
    12:00 +30°C° 0.5 mm 1 mps 741 mmHg 60%
    13:00 +31°C° 0.5 mm 2 mps 741 mmHg 58%
    14:00 +31°C° 0.9 mm 2 mps 741 mmHg 61%
    15:00 +31°C° 0.9 mm 2 mps 740 mmHg 63%
    16:00 +31°C° 0.9 mm 2 mps 740 mmHg 65%
    17:00 +30°C° 1.2 mm 1 mps 740 mmHg 69%
    18:00 +29°C° 1.2 mm 1 mps 740 mmHg 73%
    19:00 +27°C° 1.2 mm 1 mps 740 mmHg 77%
    20:00 +26°C° 2.1 mm 1 mps 740 mmHg 80%
    21:00 +25°C° 2.1 mm 1 mps 740 mmHg 84%
    22:00 +24°C° 2.1 mm 2 mps 741 mmHg 87%
    23:00 +23°C° 2 mm 1 mps 741 mmHg 88%

    21 July, Saturday

    Time Temperature Precipitation Wind Pressure Humidity
    00:00 +23°C° 2 mm 1 mps 740 mmHg 89%
    01:00 +22°C° 2 mm 1 mps 740 mmHg 90%
    02:00 +22°C° 2.1 mm 1 mps 740 mmHg 90%
    03:00 +22°C° 2.1 mm 1 mps 740 mmHg 90%
    04:00 +22°C° 2.1 mm 1 mps 740 mmHg 91%
    05:00 +22°C° 1.7 mm 1 mps 740 mmHg 91%
    06:00 +22°C° 1.7 mm 1 mps 740 mmHg 90%
    07:00 +22°C° 1.7 mm 1 mps 740 mmHg 90%
    08:00 +23°C° 0.7 mm 1 mps 740 mmHg 87%
    09:00 +24°C° 0.7 mm 1 mps 740 mmHg 84%
    10:00 +25°C° 0.7 mm 1 mps 740 mmHg 80%
    11:00 +27°C° 0.2 mm 1 mps 740 mmHg 73%
    12:00 +28°C° 0.2 mm 1 mps 740 mmHg 65%
    13:00 +30°C° 0.2 mm 1 mps 740 mmHg 57%
    14:00 +30°C° 0.6 mm 1 mps 739 mmHg 58%
    15:00 +30°C° 0.6 mm 1 mps 739 mmHg 60%
    16:00 +30°C° 0.6 mm 1 mps 739 mmHg 61%
    17:00 +29°C° 0.9 mm 1 mps 739 mmHg 66%
    18:00 +28°C° 0.9 mm 1 mps 739 mmHg 70%
    19:00 +27°C° 0.9 mm 1 mps 739 mmHg 74%
    20:00 +26°C° 0.4 mm 1 mps 739 mmHg 76%
    21:00 +25°C° 0.4 mm 1 mps 740 mmHg 77%
    22:00 +23°C° 0.4 mm 2 mps 740 mmHg 79%
    23:00 +23°C° 0.5 mm 2 mps 740 mmHg 80%

    22 July, Sunday

    Time Temperature Precipitation Wind Pressure Humidity
    00:00 +21°C° 0.5 mm 2 mps 740 mmHg 81%
    01:00 +21°C° 0.5 mm 2 mps 740 mmHg 81%
    02:00 +21°C° 0.6 mm 2 mps 739 mmHg 82%
    03:00 +21°C° 0.6 mm 2 mps 739 mmHg 82%
    04:00 +21°C° 0.6 mm 2 mps 739 mmHg 83%
    05:00 +21°C° 0.4 mm 2 mps 739 mmHg 83%
    06:00 +21°C° 0.4 mm 2 mps 739 mmHg 84%
    07:00 +21°C° 0.4 mm 2 mps 739 mmHg 84%
    08:00 +23°C° 0.2 mm 2 mps 739 mmHg 80%
    09:00 +24°C° 0.2 mm 2 mps 739 mmHg 75%
    10:00 +25°C° 0.2 mm 1 mps 739 mmHg 71%
    11:00 +26°C° 0.5 mm 2 mps 739 mmHg 68%
    12:00 +27°C° 0.5 mm 2 mps 739 mmHg 65%
    13:00 +28°C° 0.5 mm 2 mps 739 mmHg 62%
    14:00 +28°C° 0.8 mm 2 mps 739 mmHg 61%
    15:00 +29°C° 0.8 mm 2 mps 739 mmHg 61%
    16:00 +29°C° 0.8 mm 1 mps 739 mmHg 60%
    17:00 +28°C° 0.3 mm 2 mps 739 mmHg 64%
    18:00 +27°C° 0.3 mm 2 mps 739 mmHg 68%
    19:00 +26°C° 0.3 mm 2 mps 739 mmHg 73%
    20:00 +24°C° 0 mm 2 mps 740 mmHg 74%
    21:00 +23°C° 0 mm 2 mps 740 mmHg 75%
    22:00 +21°C° 0 mm 2 mps 741 mmHg 77%
    23:00 +21°C° 0 mm 2 mps 741 mmHg 76%

    23 July, Monday

    Time Temperature Precipitation Wind Pressure Humidity
    00:00 +20°C° 0 mm 2 mps 741 mmHg 75%
    01:00 +20°C° 0 mm 2 mps 741 mmHg 74%
    02:00 +19°C° 0 mm 2 mps 741 mmHg 73%
    03:00 +19°C° 0 mm 2 mps 741 mmHg 72%
    04:00 +19°C° 0 mm 2 mps 741 mmHg 71%
    05:00 +20°C° 0 mm 2 mps 741 mmHg 69%
    06:00 +21°C° 0 mm 2 mps 741 mmHg 68%
    07:00 +21°C° 0 mm 2 mps 741 mmHg 66%
    08:00 +25°C° 0 mm 2 mps 741 mmHg 59%
    09:00 +27°C° 0 mm 1 mps 741 mmHg 51%
    10:00 +29°C° 0 mm 1 mps 741 mmHg 43%
    11:00 +30°C° 0 mm 1 mps 741 mmHg 41%
    12:00 +31°C° 0 mm 1 mps 740 mmHg 39%
    13:00 +32°C° 0 mm 2 mps 740 mmHg 37%
    14:00 +32°C° 0 mm 2 mps 740 mmHg 38%
    15:00 +32°C° 0 mm 2 mps 740 mmHg 39%
    16:00 +32°C° 0 mm 2 mps 740 mmHg 40%
    17:00 +31°C° 0 mm 2 mps 740 mmHg 46%
    18:00 +29°C° 0 mm 1 mps 740 mmHg 53%
    19:00 +28°C° 0 mm 1 mps 740 mmHg 60%
    20:00 +27°C° 0 mm 1 mps 741 mmHg 63%
    21:00 +25°C° 0 mm 1 mps 741 mmHg 65%
    22:00 +24°C° 0 mm 1 mps 741 mmHg 68%
    23:00 +23°C° 0 mm 1 mps 741 mmHg 69%
    Show more